Elmira, NY

11:13 PM EST on December 06, 2019 (GMT -0500)
Elmira-Corning Regional

Weather History for KELM - October, 2019

Change the Weather History Date:

Friday, October 25, 2019

  Actual Average Record
Temperature  
Mean Temperature 47 °F -  
Max Temperature 55 °F 58 °F 77 °F (1963)
Min Temperature 39 °F 34 °F 16 °F (1969)
Degree Days  
Heating Degree Days 18    
Moisture  
Dew Point 44 °F    
Average Humidity 86    
Maximum Humidity 97    
Minimum Humidity 69    
Precipitation  
Precipitation 0.00 in - - ()
Sea Level Pressure  
Sea Level Pressure 30.25 in    
Wind  
Wind Speed 1 mph (ENE)    
Max Wind Speed 8 mph    
Max Gust Speed -    
Visibility 10 miles    
Events      
Averages and records for this station are not official NWS values.
T = Trace of Precipitation, MM = Missing Value Source: NWS Daily Summary

Daily Weather History Graph

Daily Weather History Graph

Search for Another Location

Airport or City:

Astronomy

Oct. 25, 2019 Rise Set
Actual Time 7:31 AM EDT 6:10 PM EDT
Civil Twilight 7:02 AM EDT 6:39 PM EDT
Nautical Twilight 6:30 AM EDT 7:12 PM EDT
Astronomical Twilight 5:57 AM EDT 7:44 PM EDT
Moon 4:06 AM EDT (10/25) 5:16 PM EDT (10/25)
Length of Visible Light 11h 36m
Length of Day
10h 39m
Waning Crescent, 9% of the Moon is Illuminated
Oct 25
Waning Crescent
Oct 27
New
Nov 4
First Quarter
Nov 12
Full
Nov 19
Last Quarter

Hourly Weather History & Observations

Time (EDT) Temp. Dew Point Humidity Pressure Visibility Wind Dir Wind Speed Gust Speed Precip Events Conditions
12:53 AM 44.1 °F 39.9 °F 85% 30.31 in 10.0 mi Calm Calm - N/A   Clear
1:53 AM 43.0 °F 41.0 °F 93% 30.30 in 10.0 mi Calm Calm - N/A   Mostly Cloudy
2:53 AM 39.9 °F 37.9 °F 93% 30.30 in 9.0 mi Calm Calm - N/A   Mostly Cloudy
3:53 AM 43.0 °F 42.1 °F 97% 30.30 in 10.0 mi Calm Calm - N/A   Overcast
4:53 AM 44.1 °F 43.0 °F 96% 30.30 in 10.0 mi Calm Calm - N/A   Overcast
5:53 AM 45.0 °F 43.0 °F 93% 30.30 in 10.0 mi Calm Calm - N/A   Overcast
6:53 AM 45.0 °F 43.0 °F 93% 30.31 in 10.0 mi Calm Calm - N/A   Overcast
7:53 AM 45.0 °F 43.0 °F 93% 30.31 in 10.0 mi Calm Calm - N/A   Clear
8:53 AM 46.0 °F 44.1 °F 93% 30.33 in 10.0 mi Calm Calm - N/A   Mostly Cloudy
9:53 AM 48.0 °F 45.0 °F 89% 30.32 in 10.0 mi Calm Calm - N/A   Clear
10:53 AM 50.0 °F 45.0 °F 83% 30.30 in 10.0 mi Calm Calm - N/A   Clear
11:53 AM 51.1 °F 45.0 °F 80% 30.27 in 10.0 mi Calm Calm - N/A   Mostly Cloudy
12:53 PM 52.0 °F 44.1 °F 74% 30.25 in 10.0 mi Calm Calm - N/A   Mostly Cloudy
1:53 PM 55.0 °F 46.0 °F 72% 30.21 in 10.0 mi NNE 4.6 mph - N/A   Overcast
2:53 PM 55.0 °F 45.0 °F 69% 30.19 in 10.0 mi Calm Calm - N/A   Overcast
3:53 PM 55.0 °F 46.0 °F 72% 30.19 in 10.0 mi ENE 3.5 mph - N/A   Overcast
4:53 PM 53.1 °F 46.0 °F 77% 30.19 in 10.0 mi NNE 3.5 mph - N/A   Overcast
5:53 PM 52.0 °F 46.0 °F 80% 30.19 in 10.0 mi ENE 8.1 mph - N/A   Overcast
6:53 PM 51.1 °F 46.0 °F 83% 30.21 in 10.0 mi East 5.8 mph - N/A   Overcast
7:53 PM 50.0 °F 46.0 °F 86% 30.21 in 10.0 mi East 6.9 mph - N/A   Overcast
8:51 PM 50.0 °F 46.4 °F 87% 30.20 in 10.0 mi East 4.6 mph - N/A   Overcast
8:53 PM 50.0 °F 46.0 °F 86% 30.22 in 10.0 mi ENE 3.5 mph - N/A   Overcast
9:30 PM 50.0 °F 46.0 °F 86% 30.21 in 10.0 mi Calm Calm - N/A   Overcast
9:53 PM 50.0 °F 46.0 °F 86% 30.22 in 10.0 mi Calm Calm - N/A   Overcast
10:53 PM 48.0 °F 46.0 °F 93% 30.23 in 10.0 mi Calm Calm - N/A   Overcast
11:53 PM 48.9 °F 46.0 °F 90% 30.21 in 10.0 mi Calm Calm - N/A   Overcast